CZ-4C DEB, 39016

Orbit data source: Space-Track

CZ-4C DEB, 39016 is space debris in LEO originally from a launch on Sun, 25 Nov 2012 UTC launched from the Jiuquan Satellite Launch Center, China (JSC). Debris objects in space refer to the collection of defunct objects orbiting the Earth. Examples of debris include non-operational satellites, rocket bodies, and fragments generated from explosions, collisions, or faulty payload assembly.

Loading next visibility...
Identifier
39016, 2012-066F
Orbit
LEO
Country
Flag of CNCN / PRC
Related business
Manufacturer
CAST
Mission
Spacecraft
Bus & Motor
Unknown
Mass
Unknown
Launch date (UTC)
2012-11-25 (14 years ago)
Launch vehicle
Unknown
Launch site
Jiuquan Satellite Launch Center, China (JSC)
Object type
Payload
Rocket body
Debris
Shape & HBR
Unknown shape, 3.4 m
Radar Cross Section
Large (>1 m²)

Expand to show TLE details & history
Last TLE update: 2 days ago

TLE from 2 days ago
0 CZ-4C DEB
1 39016U 12066F   26171.41503090 -.00000075  00000-0  15269-4 0  9993
2 39016  63.3550 295.2885 0444215  28.2751 334.1632 13.45323028666222
Epoch: 2026-06-20T09:57Z
TLE epoch observation values (Epoch: 2026-06-20T09:57:38.669Z)
Latitude
-0.00011°
Longitude
-122.75266°
Altitude
795.659 km
Speed
7.602 km/s
True Right ascension
19h 41m 09s
True Declination
0° 00' 00"
Sunlit
Object was in full shadow at epoch
Visualization orbit readout
Latitude
Unknown
Longitude
Unknown
Altitude
Unknown
Speed
Unknown
Apparent Right ascension
Unknown
Apparent Declination
Unknown
Sunlit
N/A
Visualization observer readout
Local Sidereal Time
00:39:54
Azimuth
Unknown
Elevation
Unknown
Doppler factor
Unknown
Orbital elements
Apogee altitude
1,420.02 km
Perigee altitude
756.675 km
Semi-major axis
7,466.485 km
Eccentricity
0.04442
Inclination
63.355°
RAAN
295.2885°
Arg. of periapsis
28.2751°
True anomaly
331.829°
Mean anomaly
334.1632°
Eccentric anomaly
333.00804°
Mean motion
3.3641 °/min
Orbital period
107.01 mins
BSTAR
0.000015269
Loading maneuver chart data...
Computing Atmospheric mass density...
Loading historical data...
Loading historical data...
Loading historical data...
Loading historical data...
Loading historical data...
Loading historical data...
Loading historical data...

Documentation

Showing up to 5 results
|